M I D A S
Marine Information and Data Acquisition System
Tripno 309 of the Zeeleeuw from 2002-08-23 06:30:27 to 2002-08-23 13:35:26
Back to CruiseResearch ActivitiesStationsMapUnderway DataData graphs

EquipmentUnitsComments
TimeDGPSUTC
LatitudeDGPSDM.mWGS84
LongitudeDGPSDM.mWGS84
SpeedMeteo Stationm/sRelative wind speed
DirectionMeteo StationdegRelative wind direction
TemperatureMeteo Stationdeg CelciusAir temperature
PressureMeteo StationPaAtmospheric pressure
HumidityMeteo Station%Relative humidity
Missing or incorrect values are displayed as -999
Metereological data collected by the RV Zeeleeuw from 2002-08-23 06:30:27 to 2002-08-23 13:35:26
                                                                                    Next 1000 lines
Time Latitude Longitude Speed Direction Temperature Pressure Humidity
2002-08-23 06:30:33 51°13.664 2°55.947 1.1 187 15.5 101910 80
2002-08-23 06:30:38 51°13.665 2°55.944 0.9 189 15.5 101910 80
2002-08-23 06:30:43 51°13.666 2°55.941 1 182 15.5 101900 80
2002-08-23 06:30:49 51°13.667 2°55.936 1 172 15.5 101900 80
2002-08-23 06:30:54 51°13.667 2°55.932 1.2 167 15.5 101910 80
2002-08-23 06:30:59 51°13.668 2°55.927 1.4 175 15.5 101910 80
2002-08-23 06:31:03 51°13.669 2°55.924 1.3 175 15.5 101900 80
2002-08-23 06:31:09 51°13.67 2°55.918 1.2 163 15.5 101900 80
2002-08-23 06:31:14 51°13.671 2°55.913 1.3 163 15.5 101910 80
2002-08-23 06:31:19 51°13.672 2°55.907 1.1 149 15.5 101910 80
2002-08-23 06:31:23 51°13.673 2°55.903 1 159 15.5 101910 80
2002-08-23 06:31:29 51°13.674 2°55.896 1.1 152 15.5 101910 80
2002-08-23 06:31:34 51°13.675 2°55.891 1.2 145 15.5 101910 80
2002-08-23 06:31:39 51°13.675 2°55.885 1.1 141 15.5 101910 80
2002-08-23 06:31:44 51°13.676 2°55.879 1.1 154 15.5 101910 80
2002-08-23 06:31:49 51°13.677 2°55.874 1.1 157 15.5 101910 80
2002-08-23 06:31:54 51°13.678 2°55.868 1 155 15.5 101910 80
2002-08-23 06:31:59 51°13.678 2°55.863 0.9 134 15.5 101910 80
2002-08-23 06:32:03 51°13.679 2°55.858 0.9 147 15.5 101900 80
2002-08-23 06:32:11 51°13.68 2°55.849 1 129 15.5 101900 80
2002-08-23 06:32:18 51°13.68 2°55.841 0.9 126 15.5 101910 80
2002-08-23 06:32:22 51°13.68 2°55.836 0.8 113 15.5 101910 80
2002-08-23 06:32:27 51°13.68 2°55.83 0.7 115 15.5 101910 80
2002-08-23 06:32:33 51°13.68 2°55.823 0.6 130 15.5 101910 80
2002-08-23 06:32:38 51°13.68 2°55.816 0.5 130 15.5 101910 80
2002-08-23 06:32:43 51°13.68 2°55.81 0.4 124 15.5 101910 80
2002-08-23 06:32:47 51°13.68 2°55.805 0.8 125 15.5 101910 80
2002-08-23 06:32:53 51°13.68 2°55.798 1.2 100 15.5 101910 80
2002-08-23 06:32:58 51°13.679 2°55.792 1.6 102 15.5 101910 80
2002-08-23 06:33:02 51°13.679 2°55.788 1.7 86 15.5 101910 80
2002-08-23 06:33:07 51°13.678 2°55.783 1.6 84 15.5 101910 80
2002-08-23 06:33:12 51°13.677 2°55.779 1.7 91 15.5 101900 80
2002-08-23 06:33:17 51°13.676 2°55.774 1.8 98 15.5 101900 80
2002-08-23 06:33:22 51°13.675 2°55.77 1.8 99 15.5 101910 81
2002-08-23 06:33:27 51°13.674 2°55.767 1.7 105 15.5 101910 81
2002-08-23 06:33:31 51°13.674 2°55.764 1.7 107 15.5 101910 81
2002-08-23 06:33:37 51°13.672 2°55.76 1.6 120 15.5 101910 81
2002-08-23 06:33:42 51°13.671 2°55.757 1.7 126 15.5 101910 80
2002-08-23 06:33:47 51°13.67 2°55.754 1.5 119 15.5 101910 80
2002-08-23 06:33:51 51°13.67 2°55.752 1.5 134 15.5 101910 80
2002-08-23 06:33:57 51°13.669 2°55.749 1.7 140 15.5 101910 80
2002-08-23 06:34:02 51°13.668 2°55.748 1.4 147 15.5 101910 80
2002-08-23 06:34:06 51°13.668 2°55.746 1.5 139 15.5 101910 80
2002-08-23 06:34:11 51°13.667 2°55.745 1.7 120 15.5 101910 80
2002-08-23 06:34:17 51°13.667 2°55.744 1.4 118 15.5 101910 80
2002-08-23 06:34:22 51°13.667 2°55.744 1.6 119 15.5 101910 80
2002-08-23 06:34:27 51°13.668 2°55.744 1.5 115 15.5 101910 80
2002-08-23 06:34:31 51°13.668 2°55.744 1.3 131 15.5 101910 80
2002-08-23 06:34:37 51°13.669 2°55.744 1.3 131 15.5 101910 80
2002-08-23 06:34:42 51°13.669 2°55.745 1.2 134 15.5 101910 80
2002-08-23 06:34:47 51°13.671 2°55.745 1 127 15.5 101910 80
2002-08-23 06:34:51 51°13.672 2°55.746 0.9 129 15.5 101910 80
2002-08-23 06:34:56 51°13.674 2°55.747 0.9 112 15.5 101910 80
2002-08-23 06:35:02 51°13.676 2°55.748 1.1 108 15.5 101910 80
2002-08-23 06:35:07 51°13.679 2°55.748 0.7 127 15.5 101910 80
2002-08-23 06:35:11 51°13.682 2°55.748 0.8 132 15.5 101910 80
2002-08-23 06:35:17 51°13.686 2°55.747 0.7 179 15.5 101910 80
2002-08-23 06:35:22 51°13.69 2°55.746 0.9 198 15.5 101910 80
2002-08-23 06:35:27 51°13.695 2°55.744 1 202 15.5 101910 80
2002-08-23 06:35:30 51°13.697 2°55.742 1.1 190 15.5 101910 80
2002-08-23 06:35:37 51°13.705 2°55.737 1 205 15.5 101910 80
2002-08-23 06:35:42 51°13.71 2°55.732 1.1 208 15.5 101910 80
2002-08-23 06:35:46 51°13.715 2°55.729 1.2 215 15.5 101910 80
2002-08-23 06:35:51 51°13.721 2°55.723 1.4 219 15.5 101910 80
2002-08-23 06:35:57 51°13.729 2°55.716 1.5 216 15.5 101910 80
2002-08-23 06:36:01 51°13.735 2°55.712 1.6 237 15.5 101910 80
2002-08-23 06:36:07 51°13.743 2°55.703 1.6 218 15.5 101910 80
2002-08-23 06:36:11 51°13.749 2°55.698 1.6 211 15.5 101910 80
2002-08-23 06:36:17 51°13.757 2°55.69 1.5 206 15.5 101910 80
2002-08-23 06:36:22 51°13.765 2°55.683 1.8 215 15.5 101910 80
2002-08-23 06:36:27 51°13.773 2°55.675 1.8 209 15.5 101910 80
2002-08-23 06:36:30 51°13.777 2°55.671 1.8 213 15.5 101920 80
2002-08-23 06:36:35 51°13.786 2°55.663 1.8 215 15.5 101920 80
2002-08-23 06:36:41 51°13.796 2°55.655 1.8 207 15.6 101920 80
2002-08-23 06:36:47 51°13.807 2°55.646 1.7 214 15.6 101920 80
2002-08-23 06:36:52 51°13.816 2°55.639 1.6 224 15.7 101910 80
2002-08-23 06:36:57 51°13.825 2°55.632 1.7 223 15.7 101910 80
2002-08-23 06:37:02 51°13.834 2°55.626 1.8 229 15.5 101910 80
2002-08-23 06:37:07 51°13.844 2°55.62 1.9 231 15.5 101910 80
2002-08-23 06:37:11 51°13.852 2°55.615 1.7 216 15.5 101910 80
2002-08-23 06:37:14 51°13.858 2°55.611 2 217 15.5 101910 80
2002-08-23 06:37:22 51°13.874 2°55.6 2.1 225 15.5 101910 80
2002-08-23 06:37:26 51°13.882 2°55.595 1.9 229 15.5 101910 80
2002-08-23 06:37:31 51°13.891 2°55.587 2.1 229 15.5 101920 80
2002-08-23 06:37:37 51°13.903 2°55.579 2.3 237 15.5 101920 80
2002-08-23 06:37:41 51°13.911 2°55.573 2.6 223 15.5 101920 80
2002-08-23 06:37:47 51°13.923 2°55.565 2.3 223 15.5 101920 80
2002-08-23 06:37:51 51°13.931 2°55.559 2 224 15.5 101910 80
2002-08-23 06:37:57 51°13.943 2°55.55 2 227 15.5 101910 80
2002-08-23 06:38:02 51°13.953 2°55.543 2.3 227 15.5 101910 80
2002-08-23 06:38:06 51°13.961 2°55.537 2.3 227 15.5 101910 80
2002-08-23 06:38:12 51°13.973 2°55.529 2.2 225 15.5 101920 80
2002-08-23 06:38:17 51°13.983 2°55.522 2.5 222 15.5 101920 80
2002-08-23 06:38:22 51°13.993 2°55.515 2.4 222 15.6 101910 80
2002-08-23 06:38:26 51°14.001 2°55.509 2.5 219 15.6 101910 80
2002-08-23 06:38:31 51°14.011 2°55.503 2.9 215 15.6 101910 80
2002-08-23 06:38:37 51°14.024 2°55.494 2.5 223 15.6 101910 80
2002-08-23 06:38:42 51°14.034 2°55.487 2.8 205 15.6 101920 80
2002-08-23 06:38:47 51°14.045 2°55.479 2.2 215 15.6 101920 80
2002-08-23 06:38:51 51°14.054 2°55.474 2.5 217 15.6 101920 80
2002-08-23 06:38:57 51°14.066 2°55.465 2.3 223 15.6 101920 80
2002-08-23 06:39:02 51°14.076 2°55.457 2.5 229 15.6 101910 80
2002-08-23 06:39:07 51°14.085 2°55.448 2 225 15.6 101910 80
2002-08-23 06:39:12 51°14.095 2°55.44 2.2 206 15.6 101920 80
2002-08-23 06:39:17 51°14.105 2°55.432 1.7 189 15.6 101920 80
2002-08-23 06:39:22 51°14.115 2°55.425 2.1 201 15.7 101920 80
2002-08-23 06:39:27 51°14.125 2°55.417 2.1 202 15.7 101920 80
2002-08-23 06:39:32 51°14.134 2°55.409 1.6 196 15.7 101920 80
2002-08-23 06:39:35 51°14.14 2°55.404 1.5 193 15.7 101920 80
2002-08-23 06:39:42 51°14.154 2°55.392 1.4 199 15.7 101910 80
2002-08-23 06:39:46 51°14.162 2°55.386 1.3 188 15.7 101910 80
2002-08-23 06:39:52 51°14.174 2°55.376 1.3 207 15.7 101910 80
2002-08-23 06:39:55 51°14.179 2°55.371 1.2 208 15.7 101910 80
2002-08-23 06:40:02 51°14.193 2°55.358 1.1 222 15.7 101920 80
2002-08-23 06:40:07 51°14.202 2°55.349 1.5 223 15.7 101920 80
2002-08-23 06:40:12 51°14.211 2°55.339 1.3 239 15.7 101920 79
2002-08-23 06:40:17 51°14.22 2°55.328 1.2 243 15.7 101920 79
2002-08-23 06:40:22 51°14.228 2°55.317 1.3 240 15.7 101920 79
2002-08-23 06:40:27 51°14.237 2°55.304 1.7 225 15.7 101920 79
2002-08-23 06:40:32 51°14.245 2°55.291 1.7 224 15.7 101920 80
2002-08-23 06:40:36 51°14.252 2°55.28 1.6 242 15.7 101920 80
2002-08-23 06:40:41 51°14.26 2°55.267 1.7 245 15.7 101920 80
2002-08-23 06:40:47 51°14.27 2°55.25 1.5 246 15.7 101920 80
2002-08-23 06:40:51 51°14.276 2°55.238 1.4 255 15.7 101920 80
2002-08-23 06:40:55 51°14.282 2°55.226 1.6 252 15.7 101920 80
2002-08-23 06:41:02 51°14.293 2°55.204 1.8 253 15.7 101920 80
2002-08-23 06:41:06 51°14.299 2°55.192 1.8 244 15.7 101920 80
2002-08-23 06:41:12 51°14.308 2°55.173 1.7 248 15.8 101920 80
2002-08-23 06:41:17 51°14.316 2°55.157 1.6 257 15.8 101920 80
2002-08-23 06:41:22 51°14.323 2°55.141 1.5 248 15.8 101910 80
2002-08-23 06:41:27 51°14.331 2°55.125 1.4 253 15.8 101910 80
2002-08-23 06:41:30 51°14.335 2°55.115 1.8 248 15.8 101920 80
2002-08-23 06:41:37 51°14.346 2°55.092 1.7 246 15.8 101920 80
2002-08-23 06:41:42 51°14.353 2°55.076 1.8 246 15.8 101920 80
2002-08-23 06:41:47 51°14.361 2°55.059 1.8 252 15.8 101920 80
2002-08-23 06:41:52 51°14.368 2°55.042 1.9 253 15.8 101920 80
2002-08-23 06:41:57 51°14.375 2°55.025 1.4 262 15.8 101920 80
2002-08-23 06:42:01 51°14.381 2°55.012 1.8 255 15.8 101910 80
2002-08-23 06:42:07 51°14.389 2°54.991 2 260 15.8 101910 80
2002-08-23 06:42:12 51°14.396 2°54.974 2.9 259 15.9 101920 79
2002-08-23 06:42:17 51°14.402 2°54.956 2.5 257 15.9 101920 79
2002-08-23 06:42:22 51°14.408 2°54.938 2.7 264 15.9 101920 79
2002-08-23 06:42:27 51°14.414 2°54.92 2.4 270 15.9 101920 79
2002-08-23 06:42:30 51°14.417 2°54.909 2.2 282 15.9 101920 79
2002-08-23 06:42:37 51°14.424 2°54.883 2.2 268 15.9 101920 79
2002-08-23 06:42:42 51°14.43 2°54.864 2.6 269 15.9 101920 80
2002-08-23 06:42:47 51°14.435 2°54.845 2.3 272 15.9 101920 80
2002-08-23 06:42:52 51°14.439 2°54.826 1.9 272 15.9 101920 80
2002-08-23 06:42:57 51°14.443 2°54.806 1.7 272 15.9 101920 80
2002-08-23 06:43:01 51°14.447 2°54.79 2.5 276 15.9 101920 79
2002-08-23 06:43:07 51°14.452 2°54.767 3.5 266 15.9 101920 79
2002-08-23 06:43:11 51°14.454 2°54.75 3.1 277 15.9 101920 79
2002-08-23 06:43:17 51°14.458 2°54.726 3.6 282 15.9 101920 79
2002-08-23 06:43:22 51°14.46 2°54.704 3 278 16 101910 79
2002-08-23 06:43:26 51°14.461 2°54.687 3.1 272 16 101910 79
2002-08-23 06:43:32 51°14.462 2°54.661 3.7 276 16 101910 79
2002-08-23 06:43:37 51°14.462 2°54.64 3.2 267 16 101910 79
2002-08-23 06:43:42 51°14.461 2°54.618 3.5 271 16 101910 79
2002-08-23 06:43:46 51°14.46 2°54.601 3.3 275 16 101910 79
2002-08-23 06:43:51 51°14.459 2°54.579 4.3 275 16 101920 79
2002-08-23 06:43:57 51°14.457 2°54.553 4 276 16 101920 79
2002-08-23 06:44:02 51°14.454 2°54.532 4.8 274 16 101920 79
2002-08-23 06:44:07 51°14.452 2°54.51 4.4 270 16 101920 79
2002-08-23 06:44:12 51°14.45 2°54.489 4.4 267 16 101910 79
2002-08-23 06:44:17 51°14.447 2°54.467 5.1 281 16 101910 79
2002-08-23 06:44:22 51°14.444 2°54.446 4.2 277 16.1 101910 79
2002-08-23 06:44:27 51°14.441 2°54.424 4.3 273 16.1 101910 79
2002-08-23 06:44:31 51°14.439 2°54.407 4.3 281 16.1 101910 79
2002-08-23 06:44:36 51°14.435 2°54.385 4.1 270 16.1 101910 79
2002-08-23 06:44:41 51°14.431 2°54.364 4.5 272 16.1 101910 79
2002-08-23 06:44:47 51°14.426 2°54.338 4.6 272 16.1 101910 79
2002-08-23 06:44:52 51°14.421 2°54.316 4.7 272 16.1 101910 79
2002-08-23 06:44:57 51°14.416 2°54.292 4.7 271 16.1 101910 79
2002-08-23 06:45:02 51°14.41 2°54.268 4.9 271 16.1 101900 79
2002-08-23 06:45:07 51°14.404 2°54.243 5.3 269 16.1 101900 79
2002-08-23 06:45:11 51°14.399 2°54.222 5.2 268 16.1 101910 78
2002-08-23 06:45:17 51°14.391 2°54.191 5 268 16.1 101910 78
2002-08-23 06:45:22 51°14.385 2°54.164 5.6 263 16.1 101900 78
2002-08-23 06:45:27 51°14.378 2°54.136 5.4 258 16.1 101900 78
2002-08-23 06:45:31 51°14.373 2°54.113 6 265 16.1 101910 78
2002-08-23 06:45:37 51°14.364 2°54.079 6 271 16.1 101910 78
2002-08-23 06:45:42 51°14.357 2°54.05 5.8 267 16.1 101910 78
2002-08-23 06:45:47 51°14.351 2°54.021 5.9 264 16.1 101910 78
2002-08-23 06:45:52 51°14.343 2°53.992 5.5 254 16.1 101900 78
2002-08-23 06:45:54 51°14.34 2°53.98 6 259 16.1 101900 78
2002-08-23 06:46:02 51°14.329 2°53.933 6.1 263 16.1 101910 78
2002-08-23 06:46:07 51°14.322 2°53.903 6.3 266 16.1 101910 78
2002-08-23 06:46:12 51°14.315 2°53.873 6.5 260 16.1 101910 77
2002-08-23 06:46:15 51°14.31 2°53.855 7.3 259 16.1 101910 77
2002-08-23 06:46:21 51°14.301 2°53.819 7.2 265 16.1 101910 77
2002-08-23 06:46:26 51°14.292 2°53.79 7.4 256 16.1 101910 77
2002-08-23 06:46:31 51°14.285 2°53.76 7.5 260 16.1 101910 77
2002-08-23 06:46:38 51°14.273 2°53.718 7.7 259 16.1 101910 77
2002-08-23 06:46:42 51°14.266 2°53.695 7.3 260 16.1 101910 77
2002-08-23 06:46:47 51°14.258 2°53.665 6.9 262 16.1 101910 77
2002-08-23 06:46:52 51°14.249 2°53.635 7.5 256 16.2 101910 77
2002-08-23 06:46:57 51°14.242 2°53.604 6.7 264 16.2 101910 77
2002-08-23 06:47:01 51°14.234 2°53.581 7.4 259 16.2 101910 77
2002-08-23 06:47:07 51°14.225 2°53.545 7.1 265 16.2 101910 77
2002-08-23 06:47:11 51°14.218 2°53.521 6.7 261 16.2 101910 77
2002-08-23 06:47:15 51°14.211 2°53.497 7 265 16.2 101910 77
2002-08-23 06:47:22 51°14.199 2°53.456 6.6 263 16.3 101910 77
2002-08-23 06:47:26 51°14.192 2°53.432 7.1 264 16.3 101910 77
2002-08-23 06:47:30 51°14.185 2°53.408 7 260 16.2 101910 77
2002-08-23 06:47:37 51°14.172 2°53.367 7.1 257 16.2 101910 77
2002-08-23 06:47:42 51°14.163 2°53.337 7.4 262 16.3 101910 77
2002-08-23 06:47:47 51°14.154 2°53.308 7.2 260 16.3 101910 77
2002-08-23 06:47:51 51°14.147 2°53.284 8.1 257 16.3 101910 77
2002-08-23 06:47:57 51°14.136 2°53.248 8.1 261 16.3 101910 77
2002-08-23 06:48:02 51°14.127 2°53.218 8 256 16.3 101900 77
2002-08-23 06:48:07 51°14.118 2°53.187 7.5 263 16.3 101900 77
2002-08-23 06:48:11 51°14.11 2°53.164 8.2 254 16.3 101910 76
2002-08-23 06:48:17 51°14.1 2°53.127 8 259 16.3 101910 76
2002-08-23 06:48:22 51°14.091 2°53.097 7.8 260 16.4 101910 77
2002-08-23 06:48:27 51°14.082 2°53.066 7.6 257 16.4 101910 77
2002-08-23 06:48:31 51°14.076 2°53.041 7.9 258 16.3 101910 77
2002-08-23 06:48:36 51°14.067 2°53.011 7.7 260 16.3 101910 77
2002-08-23 06:48:42 51°14.056 2°52.974 8.3 258 16.4 101910 77
2002-08-23 06:48:47 51°14.048 2°52.943 7.9 257 16.4 101910 77
2002-08-23 06:48:51 51°14.041 2°52.918 8.2 258 16.4 101910 77
2002-08-23 06:48:55 51°14.034 2°52.893 8.5 256 16.4 101910 77
2002-08-23 06:49:02 51°14.022 2°52.85 7.6 256 16.4 101900 76
2002-08-23 06:49:07 51°14.013 2°52.819 7.5 259 16.4 101900 76
2002-08-23 06:49:12 51°14.004 2°52.788 8.3 259 16.4 101910 76
2002-08-23 06:49:16 51°13.997 2°52.763 7.6 259 16.4 101910 76
2002-08-23 06:49:22 51°13.986 2°52.726 7.3 262 16.4 101910 76
2002-08-23 06:49:27 51°13.977 2°52.695 7.5 258 16.4 101910 76
2002-08-23 06:49:31 51°13.97 2°52.671 7.8 261 16.4 101910 76
2002-08-23 06:49:37 51°13.959 2°52.634 7.1 259 16.4 101910 76
2002-08-23 06:49:42 51°13.95 2°52.603 7.8 253 16.4 101910 76
2002-08-23 06:49:47 51°13.941 2°52.572 7.3 261 16.4 101910 76
2002-08-23 06:49:51 51°13.934 2°52.547 7.6 252 16.3 101910 76
2002-08-23 06:49:57 51°13.923 2°52.509 8.4 264 16.3 101910 76
2002-08-23 06:50:02 51°13.914 2°52.479 7.8 259 16.4 101910 76
2002-08-23 06:50:07 51°13.905 2°52.448 7.8 261 16.4 101910 76
2002-08-23 06:50:11 51°13.898 2°52.423 8.1 258 16.3 101910 76
2002-08-23 06:50:17 51°13.888 2°52.385 7.9 261 16.3 101910 76
2002-08-23 06:50:22 51°13.879 2°52.355 7.9 261 16.3 101910 76
2002-08-23 06:50:27 51°13.87 2°52.324 7.9 262 16.3 101910 76
2002-08-23 06:50:32 51°13.861 2°52.293 7.7 265 16.3 101910 76
2002-08-23 06:50:38 51°13.85 2°52.256 7.6 264 16.3 101910 76
2002-08-23 06:50:42 51°13.843 2°52.232 7.7 260 16.4 101910 76
2002-08-23 06:50:47 51°13.834 2°52.201 7.3 260 16.4 101910 76
2002-08-23 06:50:51 51°13.827 2°52.176 8.1 262 16.4 101910 76
2002-08-23 06:50:57 51°13.816 2°52.139 7.4 260 16.4 101910 76
2002-08-23 06:51:02 51°13.807 2°52.108 7.7 258 16.4 101910 76
2002-08-23 06:51:07 51°13.797 2°52.078 7.8 255 16.4 101910 76
2002-08-23 06:51:12 51°13.789 2°52.046 8.3 266 16.4 101900 76
2002-08-23 06:51:17 51°13.779 2°52.017 7.2 257 16.4 101900 76
2002-08-23 06:51:22 51°13.771 2°51.986 7.7 262 16.4 101910 76
2002-08-23 06:51:27 51°13.762 2°51.955 7.6 258 16.4 101910 76
2002-08-23 06:51:31 51°13.755 2°51.93 7.4 258 16.4 101910 76
2002-08-23 06:51:35 51°13.747 2°51.906 7.9 259 16.4 101910 76
2002-08-23 06:51:42 51°13.735 2°51.862 7.5 261 16.4 101910 76
2002-08-23 06:51:46 51°13.728 2°51.838 7.8 261 16.4 101910 76
2002-08-23 06:51:51 51°13.719 2°51.807 7.9 258 16.4 101910 76
2002-08-23 06:51:57 51°13.709 2°51.771 8.1 260 16.4 101910 76
2002-08-23 06:52:02 51°13.699 2°51.74 8.1 258 16.4 101910 76
2002-08-23 06:52:07 51°13.69 2°51.71 8.2 264 16.4 101910 76
2002-08-23 06:52:11 51°13.682 2°51.686 8.1 258 16.4 101910 76
2002-08-23 06:52:16 51°13.673 2°51.656 8 264 16.4 101910 76
2002-08-23 06:52:22 51°13.661 2°51.62 7.4 257 16.4 101910 76
2002-08-23 06:52:27 51°13.652 2°51.59 7.8 259 16.4 101910 76
2002-08-23 06:52:31 51°13.643 2°51.567 7.2 253 16.4 101910 76
2002-08-23 06:52:37 51°13.632 2°51.53 8.3 254 16.4 101910 76
2002-08-23 06:52:42 51°13.622 2°51.5 8.7 256 16.4 101910 76
2002-08-23 06:52:47 51°13.612 2°51.47 8.9 260 16.4 101910 76
2002-08-23 06:52:51 51°13.604 2°51.446 7.7 254 16.4 101910 76
2002-08-23 06:52:57 51°13.593 2°51.409 8.7 255 16.4 101910 76
2002-08-23 06:53:02 51°13.583 2°51.379 8.2 252 16.4 101910 76
2002-08-23 06:53:07 51°13.574 2°51.349 8.5 255 16.4 101910 76
2002-08-23 06:53:12 51°13.563 2°51.319 8.1 254 16.4 101910 76
2002-08-23 06:53:17 51°13.554 2°51.289 8.6 255 16.4 101910 76
2002-08-23 06:53:22 51°13.544 2°51.259 8.5 257 16.4 101910 76
2002-08-23 06:53:27 51°13.534 2°51.228 8.2 258 16.4 101910 76
2002-08-23 06:53:32 51°13.524 2°51.198 8.5 256 16.4 101910 76
2002-08-23 06:53:37 51°13.514 2°51.168 8.2 256 16.4 101910 76
2002-08-23 06:53:42 51°13.505 2°51.137 8.6 255 16.4 101910 77
2002-08-23 06:53:46 51°13.497 2°51.113 8.2 257 16.4 101910 77
2002-08-23 06:53:51 51°13.487 2°51.082 8.5 253 16.4 101910 76
2002-08-23 06:53:57 51°13.475 2°51.046 8.3 258 16.4 101910 76
2002-08-23 06:54:02 51°13.465 2°51.016 9.2 253 16.4 101910 76
2002-08-23 06:54:07 51°13.455 2°50.985 8.5 257 16.4 101910 76
2002-08-23 06:54:11 51°13.447 2°50.961 8.6 254 16.3 101910 76
2002-08-23 06:54:17 51°13.435 2°50.925 8.2 258 16.3 101910 76
2002-08-23 06:54:22 51°13.425 2°50.894 8.2 254 16.3 101910 77
2002-08-23 06:54:27 51°13.416 2°50.864 8.7 259 16.3 101910 77
2002-08-23 06:54:32 51°13.405 2°50.834 8.2 256 16.3 101910 77
2002-08-23 06:54:37 51°13.395 2°50.804 8.9 256 16.3 101910 77
2002-08-23 06:54:41 51°13.386 2°50.78 8.7 259 16.3 101910 77
2002-08-23 06:54:47 51°13.374 2°50.745 8.7 256 16.3 101910 77
2002-08-23 06:54:51 51°13.365 2°50.721 8.2 254 16.3 101910 77
2002-08-23 06:54:57 51°13.353 2°50.685 8 258 16.3 101910 77
2002-08-23 06:55:02 51°13.342 2°50.656 7.7 255 16.3 101910 77
2002-08-23 06:55:06 51°13.334 2°50.632 7.9 260 16.3 101910 77
2002-08-23 06:55:12 51°13.321 2°50.597 8.1 262 16.3 101910 77
2002-08-23 06:55:17 51°13.31 2°50.568 8.2 258 16.3 101910 77
2002-08-23 06:55:22 51°13.3 2°50.539 8.2 257 16.2 101910 77
2002-08-23 06:55:27 51°13.29 2°50.51 7.7 253 16.2 101910 77
2002-08-23 06:55:32 51°13.279 2°50.481 8 258 16.3 101910 77
2002-08-23 06:55:37 51°13.269 2°50.452 8.5 260 16.3 101910 77
2002-08-23 06:55:42 51°13.258 2°50.423 8 259 16.2 101920 77
2002-08-23 06:55:47 51°13.248 2°50.394 8.4 255 16.2 101920 77
2002-08-23 06:55:52 51°13.238 2°50.365 7.5 258 16.2 101910 78
2002-08-23 06:55:57 51°13.228 2°50.336 7.5 260 16.2 101910 78
2002-08-23 06:56:02 51°13.218 2°50.308 7.8 258 16.2 101910 77
2002-08-23 06:56:07 51°13.208 2°50.279 8.3 259 16.2 101910 77
2002-08-23 06:56:11 51°13.199 2°50.256 7.6 259 16.2 101910 78
2002-08-23 06:56:17 51°13.187 2°50.221 8.3 259 16.2 101910 78
2002-08-23 06:56:22 51°13.177 2°50.193 8.1 255 16.2 101910 78
2002-08-23 06:56:27 51°13.167 2°50.164 7.7 258 16.2 101910 78
2002-08-23 06:56:31 51°13.159 2°50.141 8.4 256 16.2 101910 78
2002-08-23 06:56:37 51°13.147 2°50.107 7.9 258 16.2 101910 78
2002-08-23 06:56:42 51°13.137 2°50.078 8.2 255 16.2 101920 78
2002-08-23 06:56:47 51°13.127 2°50.049 8.4 260 16.2 101920 78
2002-08-23 06:56:51 51°13.118 2°50.026 7.8 255 16.2 101910 78
2002-08-23 06:56:57 51°13.106 2°49.991 8.1 259 16.2 101910 78
2002-08-23 06:57:02 51°13.096 2°49.962 8.2 255 16.2 101910 78
2002-08-23 06:57:07 51°13.086 2°49.934 8.4 257 16.2 101910 78
2002-08-23 06:57:12 51°13.075 2°49.905 7.9 255 16.2 101910 78
2002-08-23 06:57:16 51°13.067 2°49.882 8.6 257 16.2 101910 78
2002-08-23 06:57:22 51°13.054 2°49.848 8.3 252 16.2 101910 78
2002-08-23 06:57:27 51°13.045 2°49.818 8.8 259 16.2 101910 78
2002-08-23 06:57:31 51°13.036 2°49.796 7.7 252 16.2 101910 78
2002-08-23 06:57:37 51°13.024 2°49.761 8.7 261 16.2 101910 78
2002-08-23 06:57:42 51°13.013 2°49.733 8.5 257 16.2 101910 79
2002-08-23 06:57:47 51°13.004 2°49.703 8.9 259 16.2 101910 79
2002-08-23 06:57:51 51°12.995 2°49.681 8.7 257 16.2 101910 79
2002-08-23 06:57:57 51°12.983 2°49.646 8.8 260 16.2 101910 79
2002-08-23 06:58:02 51°12.973 2°49.617 8.7 254 16.1 101920 79
2002-08-23 06:58:07 51°12.963 2°49.588 8.5 256 16.1 101920 79
2002-08-23 06:58:12 51°12.953 2°49.559 8.7 257 16.1 101910 79
2002-08-23 06:58:17 51°12.943 2°49.531 8.2 259 16.1 101910 79
2002-08-23 06:58:22 51°12.933 2°49.501 8.4 255 16.1 101910 79
2002-08-23 06:58:27 51°12.923 2°49.473 8.5 253 16.1 101910 79
2002-08-23 06:58:31 51°12.914 2°49.45 9.6 253 16.1 101910 79
2002-08-23 06:58:37 51°12.902 2°49.415 8.9 252 16.1 101910 79
2002-08-23 06:58:42 51°12.892 2°49.386 7.9 252 16.1 101910 79
2002-08-23 06:58:47 51°12.882 2°49.357 8.3 252 16.1 101910 79
2002-08-23 06:58:51 51°12.873 2°49.334 8.1 253 16.1 101910 79
2002-08-23 06:58:56 51°12.863 2°49.306 8.5 255 16.1 101910 79
2002-08-23 06:59:02 51°12.851 2°49.272 8 255 16.1 101910 80
2002-08-23 06:59:07 51°12.84 2°49.243 9 256 16.1 101910 80
2002-08-23 06:59:12 51°12.83 2°49.214 8.8 254 16.1 101910 80
2002-08-23 06:59:18 51°12.817 2°49.18 8.4 254 16.1 101910 80
2002-08-23 06:59:22 51°12.809 2°49.157 7.6 252 16.1 101910 80
2002-08-23 06:59:27 51°12.799 2°49.127 8.3 254 16.1 101910 80
2002-08-23 06:59:31 51°12.791 2°49.104 8.1 256 16.1 101910 79
2002-08-23 06:59:36 51°12.781 2°49.075 8.5 261 16.1 101910 79
2002-08-23 06:59:41 51°12.771 2°49.046 7.6 258 16.1 101910 79
2002-08-23 06:59:47 51°12.758 2°49.011 8.6 255 16.1 101910 79
2002-08-23 06:59:51 51°12.75 2°48.988 8.1 250 16.1 101920 80
2002-08-23 06:59:57 51°12.738 2°48.953 8.7 256 16.1 101920 80
2002-08-23 07:00:02 51°12.728 2°48.924 8.3 257 16.1 101910 79
2002-08-23 07:00:07 51°12.717 2°48.895 8.1 253 16.1 101910 79
2002-08-23 07:00:11 51°12.709 2°48.871 8.5 253 16.1 101910 79
2002-08-23 07:00:17 51°12.697 2°48.836 8.3 258 16.1 101910 79
2002-08-23 07:00:22 51°12.687 2°48.807 8.8 257 16.1 101910 79
2002-08-23 07:00:27 51°12.676 2°48.778 8.4 253 16.1 101910 79
2002-08-23 07:00:32 51°12.666 2°48.749 8.4 254 16 101910 79
2002-08-23 07:00:35 51°12.66 2°48.731 8.5 256 16 101910 79
2002-08-23 07:00:42 51°12.645 2°48.691 8.3 250 16 101910 79
2002-08-23 07:00:47 51°12.635 2°48.661 7.8 256 16 101910 79
2002-08-23 07:00:51 51°12.626 2°48.638 8.5 257 16 101910 80
2002-08-23 07:00:57 51°12.614 2°48.603 8.5 259 16 101910 80
2002-08-23 07:01:02 51°12.603 2°48.574 8 255 16 101910 80
2002-08-23 07:01:07 51°12.593 2°48.545 8 256 16 101910 80
2002-08-23 07:01:12 51°12.582 2°48.516 7.7 255 16 101910 80
2002-08-23 07:01:17 51°12.572 2°48.487 8.5 260 16 101910 80
2002-08-23 07:01:23 51°12.56 2°48.452 7.8 252 16 101920 80
2002-08-23 07:01:27 51°12.552 2°48.429 8.4 253 16 101920 80
2002-08-23 07:01:31 51°12.543 2°48.406 9 256 16 101910 80
2002-08-23 07:01:37 51°12.531 2°48.371 8.4 254 16 101910 80
2002-08-23 07:01:42 51°12.52 2°48.342 8.1 257 16 101910 80
2002-08-23 07:01:47 51°12.51 2°48.313 7.8 253 16 101910 80
2002-08-23 07:01:51 51°12.502 2°48.29 8.2 256 16 101920 80
2002-08-23 07:01:55 51°12.494 2°48.266 7.9 251 16 101920 80
2002-08-23 07:02:02 51°12.479 2°48.226 8.4 256 16 101920 80
2002-08-23 07:02:05 51°12.473 2°48.208 7.7 252 16 101920 80
2002-08-23 07:02:10 51°12.463 2°48.179 8 258 15.9 101920 80
2002-08-23 07:02:17 51°12.448 2°48.139 7.8 254 15.9 101920 80
2002-08-23 07:02:22 51°12.438 2°48.11 8.5 255 15.9 101920 80
2002-08-23 07:02:25 51°12.432 2°48.092 8.3 252 15.9 101920 80
2002-08-23 07:02:32 51°12.417 2°48.052 8.7 254 15.9 101910 80
2002-08-23 07:02:37 51°12.407 2°48.023 8.8 254 15.9 101910 80
2002-08-23 07:02:42 51°12.397 2°47.994 8.6 252 15.9 101920 80
2002-08-23 07:02:47 51°12.386 2°47.965 8.6 257 15.9 101920 80
2002-08-23 07:02:51 51°12.378 2°47.942 8.1 255 15.9 101910 80
2002-08-23 07:02:57 51°12.366 2°47.907 8.9 256 15.9 101910 80
2002-08-23 07:03:02 51°12.356 2°47.878 9.2 255 15.9 101910 80
2002-08-23 07:03:06 51°12.347 2°47.855 8 251 15.9 101910 80
2002-08-23 07:03:11 51°12.337 2°47.826 9.1 256 15.9 101920 80
2002-08-23 07:03:17 51°12.325 2°47.791 8.1 253 15.9 101920 80
2002-08-23 07:03:22 51°12.314 2°47.763 7.5 251 15.9 101910 80
2002-08-23 07:03:27 51°12.304 2°47.734 7.8 251 15.9 101910 80
2002-08-23 07:03:32 51°12.294 2°47.706 8.6 253 15.9 101920 80
2002-08-23 07:03:37 51°12.283 2°47.677 8.3 252 15.9 101920 80
2002-08-23 07:03:42 51°12.273 2°47.648 8.9 255 15.9 101910 80
2002-08-23 07:03:47 51°12.263 2°47.619 8.7 253 15.9 101910 80
2002-08-23 07:03:52 51°12.253 2°47.591 8.4 253 15.9 101920 80
2002-08-23 07:03:55 51°12.246 2°47.574 8 252 15.9 101920 80
2002-08-23 07:04:01 51°12.234 2°47.539 8.9 246 15.9 101920 80
2002-08-23 07:04:06 51°12.223 2°47.511 8.8 244 15.9 101920 80
2002-08-23 07:04:11 51°12.214 2°47.482 9.2 249 15.9 101910 80
2002-08-23 07:04:15 51°12.205 2°47.46 8.9 249 15.9 101910 80
2002-08-23 07:04:22 51°12.191 2°47.419 8.6 253 15.9 101920 80
2002-08-23 07:04:26 51°12.182 2°47.397 8 253 15.9 101920 80
2002-08-23 07:04:31 51°12.172 2°47.367 8 250 16 101910 80
2002-08-23 07:04:35 51°12.164 2°47.345 8.9 248 16 101910 80
2002-08-23 07:04:42 51°12.149 2°47.304 8.7 250 16 101920 80
2002-08-23 07:04:47 51°12.139 2°47.275 8.8 253 16 101920 80
2002-08-23 07:04:52 51°12.129 2°47.246 8.8 251 16 101920 80
2002-08-23 07:04:57 51°12.118 2°47.217 8.4 257 16 101920 80
2002-08-23 07:05:02 51°12.108 2°47.187 8.1 251 16 101920 80
2002-08-23 07:05:07 51°12.099 2°47.157 8.3 248 16 101920 80
2002-08-23 07:05:12 51°12.089 2°47.127 9.1 252 16 101920 80
2002-08-23 07:05:15 51°12.083 2°47.108 8.8 253 16 101920 80
2002-08-23 07:05:22 51°12.069 2°47.065 8.7 254 16 101920 80
2002-08-23 07:05:27 51°12.06 2°47.034 8.9 252 16 101920 80
2002-08-23 07:05:30 51°12.054 2°47.016 8.3 255 16 101920 80
2002-08-23 07:05:35 51°12.045 2°46.985 8 254 16 101920 80
2002-08-23 07:05:42 51°12.031 2°46.942 8 250 16 101910 80
2002-08-23 07:05:47 51°12.021 2°46.91 8.7 249 16 101910 80
2002-08-23 07:05:52 51°12.012 2°46.879 8.4 247 16 101910 80
2002-08-23 07:05:57 51°12.002 2°46.848 8.4 253 16 101910 80
2002-08-23 07:06:02 51°11.992 2°46.818 8.1 253 16 101920 79
2002-08-23 07:06:06 51°11.985 2°46.792 7.5 251 16 101920 79
2002-08-23 07:06:12 51°11.973 2°46.755 9.2 252 15.9 101920 79
2002-08-23 07:06:17 51°11.963 2°46.724 8.2 254 15.9 101920 79
2002-08-23 07:06:22 51°11.953 2°46.693 7.8 253 16 101910 80
2002-08-23 07:06:27 51°11.943 2°46.662 8.6 255 16 101910 80
2002-08-23 07:06:32 51°11.934 2°46.63 8.5 250 15.9 101920 80
2002-08-23 07:06:37 51°11.924 2°46.599 8.6 252 15.9 101920 80
2002-08-23 07:06:42 51°11.914 2°46.568 9.1 254 15.9 101920 80
2002-08-23 07:06:46 51°11.906 2°46.543 8.7 254 15.9 101920 80
2002-08-23 07:06:52 51°11.894 2°46.505 9 249 15.9 101920 80
2002-08-23 07:06:55 51°11.889 2°46.486 9.1 254 15.9 101920 80
2002-08-23 07:07:02 51°11.876 2°46.441 8.5 247 15.9 101920 80
2002-08-23 07:07:06 51°11.87 2°46.414 8.7 252 15.9 101920 80
2002-08-23 07:07:12 51°11.86 2°46.376 8.5 254 16 101920 80
2002-08-23 07:07:17 51°11.852 2°46.344 7.9 251 16 101920 80
2002-08-23 07:07:22 51°11.845 2°46.311 8.7 253 16 101920 80
2002-08-23 07:07:27 51°11.836 2°46.278 7.8 250 16 101920 80
2002-08-23 07:07:31 51°11.83 2°46.252 7.9 250 16 101920 80
2002-08-23 07:07:37 51°11.82 2°46.213 8.6 254 16 101920 80
2002-08-23 07:07:42 51°11.812 2°46.18 8.3 256 16 101910 80
2002-08-23 07:07:46 51°11.806 2°46.154 7.7 252 16 101910 80
2002-08-23 07:07:50 51°11.8 2°46.128 7.9 251 16 101920 80
2002-08-23 07:07:57 51°11.789 2°46.082 8.1 255 16 101920 80
2002-08-23 07:08:01 51°11.783 2°46.056 7.9 251 16 101920 80
2002-08-23 07:08:06 51°11.775 2°46.023 9 255 16 101920 80
2002-08-23 07:08:12 51°11.766 2°45.983 8.4 252 16 101920 80
2002-08-23 07:08:17 51°11.758 2°45.95 8.2 253 16 101920 80
2002-08-23 07:08:22 51°11.75 2°45.918 8.6 254 15.9 101930 80
2002-08-23 07:08:27 51°11.742 2°45.885 8.5 254 15.9 101930 80
2002-08-23 07:08:32 51°11.734 2°45.852 8 253 16 101920 80
2002-08-23 07:08:34 51°11.731 2°45.839 7.7 252 16 101920 80
2002-08-23 07:08:42 51°11.718 2°45.787 8.2 250 16 101920 80
2002-08-23 07:08:47 51°11.711 2°45.754 8.8 253 16 101920 80
2002-08-23 07:08:51 51°11.705 2°45.728 8.8 256 15.9 101920 80
2002-08-23 07:08:57 51°11.695 2°45.689 7.7 251 15.9 101920 80
2002-08-23 07:09:02 51°11.687 2°45.656 8.9 249 16 101920 80
2002-08-23 07:09:07 51°11.68 2°45.623 9 250 16 101920 80
2002-08-23 07:09:12 51°11.671 2°45.591 9.4 254 15.9 101920 80
2002-08-23 07:09:18 51°11.662 2°45.552 8.9 253 15.9 101920 80
2002-08-23 07:09:22 51°11.656 2°45.526 8.3 255 15.9 101920 80
2002-08-23 07:09:27 51°11.648 2°45.493 8.2 250 15.9 101920 80
2002-08-23 07:09:30 51°11.643 2°45.473 8.5 249 15.9 101920 80
2002-08-23 07:09:37 51°11.632 2°45.428 8.3 250 15.9 101920 80
2002-08-23 07:09:42 51°11.624 2°45.395 8.7 250 16 101910 80
2002-08-23 07:09:47 51°11.617 2°45.363 8.9 255 16 101910 80
2002-08-23 07:09:51 51°11.61 2°45.337 8.5 253 15.9 101920 80
2002-08-23 07:09:57 51°11.601 2°45.298 8.4 249 15.9 101920 80
2002-08-23 07:10:02 51°11.593 2°45.265 8.9 249 15.9 101920 80
2002-08-23 07:10:06 51°11.587 2°45.239 8.4 245 15.9 101920 80
2002-08-23 07:10:11 51°11.579 2°45.207 8.6 247 16 101920 80
2002-08-23 07:10:17 51°11.57 2°45.168 8.1 252 16 101920 80
2002-08-23 07:10:22 51°11.562 2°45.135 8.4 246 16 101920 80
2002-08-23 07:10:27 51°11.554 2°45.102 8.7 251 16 101920 80
2002-08-23 07:10:31 51°11.548 2°45.077 8.7 242 16 101920 80
2002-08-23 07:10:37 51°11.539 2°45.038 8.4 248 16 101920 80
2002-08-23 07:10:42 51°11.53 2°45.006 8.8 242 16 101920 80
2002-08-23 07:10:46 51°11.525 2°44.98 8.2 245 16 101920 80
2002-08-23 07:10:51 51°11.517 2°44.947 8 249 16 101920 80
2002-08-23 07:10:57 51°11.507 2°44.909 9 246 16 101920 80
2002-08-23 07:11:02 51°11.5 2°44.876 9.2 248 16 101920 80
2002-08-23 07:11:07 51°11.491 2°44.844 9.4 245 16 101920 80
2002-08-23 07:11:11 51°11.486 2°44.818 9.5 248 16 101920 80
2002-08-23 07:11:17 51°11.476 2°44.78 9.1 242 16 101920 80
2002-08-23 07:11:22 51°11.468 2°44.747 9.3 242 16 101920 80
2002-08-23 07:11:26 51°11.462 2°44.721 9.9 246 16 101920 80
2002-08-23 07:11:31 51°11.454 2°44.689 9.7 244 16 101920 80
2002-08-23 07:11:37 51°11.446 2°44.649 9.7 247 16 101920 80
2002-08-23 07:11:42 51°11.439 2°44.617 8.8 247 16 101920 80
2002-08-23 07:11:47 51°11.432 2°44.584 8.9 249 16 101920 80
2002-08-23 07:11:52 51°11.425 2°44.551 9.1 247 16 101920 80
2002-08-23 07:11:57 51°11.418 2°44.519 8.5 244 16 101920 80
2002-08-23 07:12:02 51°11.412 2°44.486 8.7 244 16 101930 80
2002-08-23 07:12:06 51°11.406 2°44.459 8.9 245 16 101930 80
2002-08-23 07:12:11 51°11.399 2°44.427 8.5 248 16 101920 80
2002-08-23 07:12:17 51°11.391 2°44.387 9.3 243 16 101920 80
2002-08-23 07:12:22 51°11.385 2°44.354 8.7 249 16.1 101920 80
2002-08-23 07:12:27 51°11.378 2°44.321 8.5 250 16.1 101920 80
2002-08-23 07:12:31 51°11.372 2°44.295 8.2 244 16.1 101920 80
2002-08-23 07:12:37 51°11.365 2°44.256 8.9 249 16.1 101920 80
2002-08-23 07:12:42 51°11.357 2°44.223 8.8 247 16.1 101920 80
2002-08-23 07:12:47 51°11.351 2°44.19 9.3 247 16.1 101920 80
2002-08-23 07:12:52 51°11.344 2°44.157 9.3 246 16.1 101920 79
2002-08-23 07:12:57 51°11.337 2°44.124 8.7 241 16.1 101920 79
2002-08-23 07:13:02 51°11.331 2°44.091 8.3 242 16.1 101920 80
2002-08-23 07:13:06 51°11.325 2°44.065 8.8 245 16.1 101920 80
2002-08-23 07:13:12 51°11.317 2°44.025 9.3 244 16.1 101920 80
2002-08-23 07:13:18 51°11.309 2°43.985 9 245 16.1 101920 80
2002-08-23 07:13:22 51°11.303 2°43.959 8.7 245 16.1 101930 80
2002-08-23 07:13:26 51°11.298 2°43.932 8.9 244 16.1 101930 80
2002-08-23 07:13:31 51°11.291 2°43.899 8.3 247 16.1 101920 80
2002-08-23 07:13:35 51°11.286 2°43.873 9 240 16.1 101920 80
2002-08-23 07:13:42 51°11.276 2°43.827 8.1 242 16.1 101930 80
2002-08-23 07:13:47 51°11.269 2°43.794 8.1 245 16.1 101930 80
2002-08-23 07:13:52 51°11.262 2°43.761 8.6 244 16.1 101920 80
2002-08-23 07:13:57 51°11.256 2°43.728 8.8 243 16.1 101920 80
2002-08-23 07:14:02 51°11.249 2°43.695 8.1 243 16.1 101930 79
2002-08-23 07:14:07 51°11.242 2°43.662 8.5 245 16.1 101930 79
2002-08-23 07:14:12 51°11.235 2°43.629 8.3 248 16.1 101930 79
2002-08-23 07:14:17 51°11.228 2°43.596 7.9 243 16.1 101930 79
2002-08-23 07:14:22 51°11.221 2°43.562 8.2 248 16.1 101920 79
2002-08-23 07:14:27 51°11.214 2°43.529 8.2 242 16.1 101920 79
2002-08-23 07:14:31 51°11.209 2°43.503 8.5 247 16.1 101920 79
2002-08-23 07:14:37 51°11.201 2°43.463 8.5 244 16.1 101920 79
2002-08-23 07:14:42 51°11.194 2°43.43 9 249 16 101930 79
2002-08-23 07:14:47 51°11.187 2°43.397 8.8 242 16 101930 79
2002-08-23 07:14:51 51°11.182 2°43.371 8.9 245 16 101930 79
2002-08-23 07:14:58 51°11.172 2°43.324 9.4 238 16 101930 79
2002-08-23 07:15:02 51°11.166 2°43.298 8.8 245 16 101930 79
2002-08-23 07:15:07 51°11.159 2°43.264 8.3 238 16 101930 79
2002-08-23 07:15:11 51°11.154 2°43.238 8.4 243 16 101930 79
2002-08-23 07:15:17 51°11.146 2°43.199 8.3 240 16 101930 79
2002-08-23 07:15:22 51°11.139 2°43.166 9 246 16 101930 79
2002-08-23 07:15:27 51°11.132 2°43.133 8.7 246 16 101930 79
2002-08-23 07:15:32 51°11.126 2°43.099 9 245 16 101930 79
2002-08-23 07:15:37 51°11.119 2°43.066 8.8 253 16 101930 79
2002-08-23 07:15:42 51°11.112 2°43.033 8.2 249 16 101930 79
2002-08-23 07:15:47 51°11.105 2°42.999 8.1 247 16 101930 79
2002-08-23 07:15:52 51°11.099 2°42.967 8.7 250 16.1 101930 79
2002-08-23 07:15:57 51°11.091 2°42.934 9 242 16.1 101930 79
2002-08-23 07:16:02 51°11.085 2°42.9 9.4 247 16.1 101930 79
2002-08-23 07:16:07 51°11.077 2°42.867 8.4 244 16.1 101930 79
2002-08-23 07:16:11 51°11.073 2°42.841 8.1 242 16 101930 79
2002-08-23 07:16:15 51°11.067 2°42.815 8.2 250 16 101930 79
2002-08-23 07:16:22 51°11.058 2°42.768 8.2 243 16.1 101930 79
2002-08-23 07:16:26 51°11.055 2°42.74 8.3 254 16.1 101930 79
2002-08-23 07:16:31 51°11.049 2°42.707 8.1 248 16 101930 79
2002-08-23 07:16:35 51°11.048 2°42.679 8.1 249 16 101930 79
2002-08-23 07:16:42 51°11.045 2°42.631 7.6 244 16.1 101930 79
2002-08-23 07:16:47 51°11.045 2°42.597 7.6 251 16.1 101930 79
2002-08-23 07:16:52 51°11.045 2°42.562 7.7 248 16.1 101930 79
2002-08-23 07:16:57 51°11.046 2°42.528 7.6 248 16.1 101930 79
2002-08-23 07:17:02 51°11.047 2°42.494 7.4 244 16.1 101930 79
2002-08-23 07:17:07 51°11.049 2°42.46 7.7 249 16.1 101930 79
2002-08-23 07:17:10 51°11.049 2°42.44 7.1 246 16.1 101930 79
2002-08-23 07:17:17 51°11.051 2°42.392 7.3 247 16.1 101930 79
2002-08-23 07:17:22 51°11.052 2°42.357 7.3 252 16.1 101930 79
2002-08-23 07:17:27 51°11.053 2°42.323 7.4 251 16.1 101930 79
2002-08-23 07:17:31 51°11.055 2°42.296 6.9 249 16.1 101940 79
2002-08-23 07:17:35 51°11.056 2°42.27 6.4 247 16.1 101940 79
2002-08-23 07:17:42 51°11.059 2°42.226 6.1 249 16.1 101930 79
2002-08-23 07:17:47 51°11.061 2°42.197 6.3 243 16.1 101930 79
2002-08-23 07:17:51 51°11.062 2°42.174 5.1 251 16.1 101930 79
2002-08-23 07:17:55 51°11.064 2°42.152 4.6 254 16.1 101930 79
2002-08-23 07:18:05 51°11.069 2°42.103 4 258 16.1 101940 79
2002-08-23 07:18:10 51°11.073 2°42.082 3 253 16.1 101940 79
2002-08-23 07:18:13 51°11.076 2°42.071 3.2 259 16.1 101930 79
2002-08-23 07:18:22 51°11.087 2°42.04 1.9 252 16.1 101940 79
2002-08-23 07:18:27 51°11.094 2°42.027 1.9 256 16.1 101940 79
2002-08-23 07:18:32 51°11.102 2°42.014 2 238 16.1 101940 79
2002-08-23 07:18:37 51°11.11 2°42.004 1.9 233 16.1 101940 79
2002-08-23 07:18:42 51°11.12 2°41.997 2.1 229 16.1 101940 79
2002-08-23 07:18:47 51°11.13 2°41.993 2.2 214 16.1 101940 79
2002-08-23 07:18:52 51°11.14 2°41.991 2.4 209 16.1 101940 79
2002-08-23 07:18:57 51°11.149 2°41.992 2.4 194 16.1 101940 79
2002-08-23 07:19:01 51°11.155 2°41.994 2.3 194 16.1 101930 79
2002-08-23 07:19:06 51°11.163 2°41.996 2.1 196 16.1 101930 79
2002-08-23 07:19:12 51°11.171 2°41.997 1.7 187 16.1 101940 79
2002-08-23 07:19:14 51°11.174 2°41.998 1.7 179 16.1 101940 79
2002-08-23 07:19:22 51°11.184 2°42 1.7 175 16.1 101940 79
2002-08-23 07:19:27 51°11.189 2°42 1.6 162 16.1 101940 79
2002-08-23 07:19:32 51°11.194 2°42.001 1.7 147 16.2 101940 79
2002-08-23 07:19:35 51°11.197 2°42.001 1.5 153 16.2 101940 79
2002-08-23 07:19:42 51°11.202 2°42.002 1.6 148 16.2 101940 79
2002-08-23 07:19:46 51°11.204 2°42.002 1.8 147 16.2 101940 79
2002-08-23 07:19:52 51°11.206 2°42.002 1.7 154 16.2 101940 79
2002-08-23 07:19:57 51°11.207 2°42.001 2.1 144 16.2 101940 79
2002-08-23 07:20:01 51°11.208 2°42.001 1.8 142 16.2 101940 79
2002-08-23 07:20:06 51°11.209 2°42.001 2 152 16.2 101940 79
2002-08-23 07:20:12 51°11.211 2°42.001 1.9 148 16.2 101940 79
2002-08-23 07:20:17 51°11.212 2°42 1.9 144 16.2 101940 79
2002-08-23 07:20:22 51°11.213 2°42 1.6 154 16.2 101930 79
2002-08-23 07:20:27 51°11.214 2°42 1.9 154 16.2 101930 79
2002-08-23 07:20:31 51°11.214 2°42 1.5 153 16.2 101940 79
2002-08-23 07:20:37 51°11.215 2°42 1.7 165 16.2 101940 79
2002-08-23 07:20:42 51°11.216 2°42 2.2 168 16.2 101940 79
2002-08-23 07:20:46 51°11.216 2°42 1.9 161 16.2 101940 79
2002-08-23 07:20:50 51°11.217 2°42 1.3 166 16.2 101940 79
2002-08-23 07:20:55 51°11.218 2°42 1.8 153 16.2 101940 79
2002-08-23 07:21:02 51°11.219 2°42 1.8 165 16.2 101940 78
2002-08-23 07:21:06 51°11.219 2°42 1.8 175 16.2 101940 78
2002-08-23 07:21:11 51°11.22 2°42 1.9 178 16.3 101940 78
2002-08-23 07:21:16 51°11.22 2°42 2 172 16.3 101940 78
2002-08-23 07:21:22 51°11.22 2°42.001 1.6 166 16.2 101940 78
2002-08-23 07:21:27 51°11.22 2°42.001 1.6 174 16.2 101940 78
2002-08-23 07:21:32 51°11.22 2°42.001 1.5 179 16.3 101940 78
2002-08-23 07:21:35 51°11.22 2°42.001 1.8 171 16.3 101940 78
2002-08-23 07:21:42 51°11.219 2°42.002 1.5 175 16.3 101940 78
2002-08-23 07:21:47 51°11.219 2°42.002 1.6 169 16.3 101940 78
2002-08-23 07:21:52 51°11.219 2°42.003 1.6 182 16.3 101940 78
2002-08-23 07:21:58 51°11.218 2°42.003 1.8 194 16.3 101940 78
2002-08-23 07:22:02 51°11.218 2°42.003 1.6 185 16.3 101940 78
2002-08-23 07:22:07 51°11.217 2°42.003 1.3 185 16.3 101940 78
2002-08-23 07:22:12 51°11.216 2°42.004 2.1 173 16.3 101940 78
2002-08-23 07:22:15 51°11.216 2°42.004 1.8 184 16.3 101940 78
2002-08-23 07:22:22 51°11.214 2°42.005 2 197 16.3 101940 78
2002-08-23 07:22:26 51°11.214 2°42.005 2.1 183 16.3 101940 78
2002-08-23 07:22:32 51°11.213 2°42.006 2.5 178 16.3 101940 78
2002-08-23 07:22:37 51°11.213 2°42.007 2.3 170 16.3 101940 78
2002-08-23 07:22:41 51°11.212 2°42.008 2.5 171 16.3 101940 78
2002-08-23 07:22:47 51°11.211 2°42.009 2.4 170 16.3 101940 78
2002-08-23 07:22:51 51°11.21 2°42.009 2.1 185 16.3 101940 78
2002-08-23 07:22:55 51°11.209 2°42.01 2.3 176 16.3 101940 78
2002-08-23 07:23:02 51°11.208 2°42.011 2.6 171 16.3 101940 78
2002-08-23 07:23:06 51°11.207 2°42.012 2.6 172 16.3 101940 78
2002-08-23 07:23:11 51°11.206 2°42.013 2.8 178 16.4 101940 78
2002-08-23 07:23:17 51°11.205 2°42.014 2.8 178 16.4 101940 78
2002-08-23 07:23:22 51°11.204 2°42.015 2.7 183 16.4 101940 78
2002-08-23 07:23:27 51°11.203 2°42.016 2.1 173 16.4 101940 78
2002-08-23 07:23:32 51°11.202 2°42.017 1.8 179 16.4 101940 78
2002-08-23 07:23:37 51°11.201 2°42.018 1.7 187 16.4 101940 78
2002-08-23 07:23:42 51°11.2 2°42.019 2 188 16.4 101940 78
2002-08-23 07:23:47 51°11.199 2°42.02 1.9 184 16.4 101940 78
2002-08-23 07:23:51 51°11.199 2°42.021 2 180 16.4 101950 78
2002-08-23 07:23:57 51°11.198 2°42.023 1.9 182 16.4 101950 78
2002-08-23 07:24:02 51°11.198 2°42.024 1.9 193 16.4 101940 78
2002-08-23 07:24:07 51°11.197 2°42.026 1.6 186 16.4 101940 78
2002-08-23 07:24:13 51°11.197 2°42.028 1.6 188 16.3 101940 78
2002-08-23 07:24:17 51°11.196 2°42.03 1.7 186 16.3 101940 78
2002-08-23 07:24:22 51°11.196 2°42.031 1.6 186 16.4 101940 78
2002-08-23 07:24:26 51°11.196 2°42.033 1.8 187 16.4 101940 78
2002-08-23 07:24:32 51°11.196 2°42.035 1.6 191 16.4 101940 78
2002-08-23 07:24:37 51°11.196 2°42.037 1.8 186 16.4 101940 78
2002-08-23 07:24:42 51°11.196 2°42.039 1.9 183 16.3 101940 77
2002-08-23 07:24:47 51°11.195 2°42.04 2.1 177 16.3 101940 77
2002-08-23 07:24:51 51°11.195 2°42.041 1.9 180 16.4 101940 77
2002-08-23 07:24:55 51°11.194 2°42.042 1.9 182 16.4 101940 77
2002-08-23 07:25:02 51°11.194 2°42.044 2.4 163 16.3 101940 77
2002-08-23 07:25:07 51°11.193 2°42.046 1.5 183 16.3 101940 77
2002-08-23 07:25:12 51°11.193 2°42.047 1.9 172 16.3 101940 77
2002-08-23 07:25:17 51°11.193 2°42.049 1.9 178 16.3 101940 77
2002-08-23 07:25:22 51°11.193 2°42.051 2.2 171 16.3 101940 77
2002-08-23 07:25:26 51°11.193 2°42.052 2.1 176 16.3 101940 77
2002-08-23 07:25:32 51°11.193 2°42.054 2.6 164 16.3 101940 78
2002-08-23 07:25:35 51°11.193 2°42.055 1.9 160 16.3 101940 78
2002-08-23 07:25:42 51°11.193 2°42.058 2.3 167 16.4 101950 78
2002-08-23 07:25:47 51°11.193 2°42.06 1.7 171 16.4 101950 78
2002-08-23 07:25:51 51°11.193 2°42.062 1.9 165 16.4 101940 78
2002-08-23 07:25:55 51°11.193 2°42.063 2.1 150 16.4 101940 78
2002-08-23 07:26:02 51°11.193 2°42.065 1.6 150 16.4 101940 78
2002-08-23 07:26:05 51°11.194 2°42.066 2.5 159 16.4 101940 78
2002-08-23 07:26:12 51°11.194 2°42.068 2.1 164 16.4 101950 78
2002-08-23 07:26:17 51°11.194 2°42.07 2 179 16.4 101950 78
2002-08-23 07:26:22 51°11.194 2°42.072 2 168 16.4 101940 78
2002-08-23 07:26:27 51°11.194 2°42.074 2.1 163 16.4 101940 78
2002-08-23 07:26:32 51°11.194 2°42.075 2.1 177 16.4 101940 78
2002-08-23 07:26:38 51°11.195 2°42.078 2.4 174 16.4 101940 78
2002-08-23 07:26:42 51°11.194 2°42.079 2 183 16.4 101940 79
2002-08-23 07:26:47 51°11.194 2°42.081 2.1 182 16.4 101940 79
2002-08-23 07:26:52 51°11.194 2°42.082 2 180 16.4 101940 78
2002-08-23 07:26:55 51°11.193 2°42.084 1.8 180 16.4 101940 78
2002-08-23 07:27:02 51°11.193 2°42.086 2 181 16.5 101940 78
2002-08-23 07:27:07 51°11.193 2°42.087 1.7 179 16.5 101940 78
2002-08-23 07:27:12 51°11.192 2°42.089 2 178 16.5 101940 78
2002-08-23 07:27:22 51°11.191 2°42.091 2.4 168 16.5 101940 78
2002-08-23 07:27:27 51°11.19 2°42.092 2 187 16.5 101940 78
2002-08-23 07:27:32 51°11.189 2°42.093 2.4 181 16.5 101950 78
2002-08-23 07:27:37 51°11.188 2°42.094 2.6 176 16.5 101950 78
2002-08-23 07:27:42 51°11.187 2°42.095 2.5 184 16.5 101940 78
2002-08-23 07:27:46 51°11.187 2°42.095 2.5 185 16.5 101940 78
2002-08-23 07:27:52 51°11.185 2°42.096 2.2 186 16.5 101950 78
2002-08-23 07:27:55 51°11.185 2°42.096 2.1 187 16.5 101950 78
2002-08-23 07:28:04 51°11.183 2°42.097 2 193 16.5 101940 78
2002-08-23 07:28:10 51°11.182 2°42.098 1.7 183 16.5 101940 78
2002-08-23 07:28:15 51°11.181 2°42.098 2 189 16.5 101950 78
2002-08-23 07:28:20 51°11.18 2°42.098 1.7 185 16.5 101950 78
2002-08-23 07:28:25 51°11.178 2°42.099 1.5 189 16.5 101940 77
2002-08-23 07:28:30 51°11.177 2°42.099 1.8 190 16.5 101940 77
2002-08-23 07:28:34 51°11.177 2°42.1 1.7 189 16.5 101940 77
2002-08-23 07:28:38 51°11.176 2°42.099 1.8 195 16.5 101940 77
2002-08-23 07:28:45 51°11.174 2°42.099 2.1 193 16.5 101950 77
2002-08-23 07:28:50 51°11.172 2°42.1 2.3 190 16.5 101950 77
2002-08-23 07:28:53 51°11.171 2°42.099 1.8 199 16.5 101940 77
2002-08-23 07:28:59 51°11.17 2°42.099 2.2 203 16.5 101940 77
2002-08-23 07:29:05 51°11.169 2°42.099 2.4 199 16.4 101940 77
2002-08-23 07:29:10 51°11.167 2°42.099 2.2 191 16.4 101940 77
2002-08-23 07:29:15 51°11.166 2°42.099 1.9 190 16.4 101950 77
2002-08-23 07:29:20 51°11.164 2°42.098 2 185 16.4 101950 77
2002-08-23 07:29:25 51°11.163 2°42.098 2.1 188 16.4 101950 77
2002-08-23 07:29:30 51°11.161 2°42.097 2.3 203 16.4 101950 77
2002-08-23 07:29:35 51°11.16 2°42.097 2.3 192 16.4 101940 77
2002-08-23 07:29:40 51°11.159 2°42.096 2 197 16.4 101940 77
2002-08-23 07:29:45 51°11.157 2°42.096 2.1 203 16.4 101950 77
2002-08-23 07:29:50 51°11.156 2°42.095 2.4 197 16.4 101950 77
2002-08-23 07:29:53 51°11.155 2°42.094 2.2 220 16.4 101940 77
2002-08-23 07:29:59 51°11.153 2°42.093 2 210 16.4 101940 77
2002-08-23 07:30:05 51°11.151 2°42.092 2.2 210 16.4 101940 77
2002-08-23 07:30:10 51°11.15 2°42.092 2.3 205 16.4 101940 77
2002-08-23 07:30:15 51°11.148 2°42.09 2.1 208 16.4 101950 77
2002-08-23 07:30:18 51°11.147 2°42.09 2 208 16.4 101950 77
2002-08-23 07:30:25 51°11.145 2°42.089 1.9 216 16.4 101950 77
2002-08-23 07:30:30 51°11.143 2°42.087 2.4 203 16.4 101950 77
2002-08-23 07:30:35 51°11.142 2°42.086 2.4 201 16.4 101940 77
2002-08-23 07:30:40 51°11.14 2°42.086 2.6 204 16.4 101940 77
2002-08-23 07:30:45 51°11.139 2°42.084 2.5 207 16.4 101950 77
2002-08-23 07:30:50 51°11.137 2°42.083 2.3 200 16.4 101950 77
2002-08-23 07:30:55 51°11.135 2°42.081 2.2 205 16.4 101940 77
2002-08-23 07:30:59 51°11.134 2°42.081 2.5 204 16.4 101940 77
2002-08-23 07:31:05 51°11.132 2°42.079 2.6 204 16.4 101950 77
2002-08-23 07:31:10 51°11.131 2°42.078 2.8 203 16.4 101950 77
2002-08-23 07:31:15 51°11.129 2°42.076 2.4 209 16.4 101950 77
2002-08-23 07:31:20 51°11.128 2°42.075 2.3 209 16.4 101950 77
2002-08-23 07:31:25 51°11.126 2°42.073 2.5 209 16.4 101950 77
2002-08-23 07:31:30 51°11.125 2°42.072 2.5 205 16.4 101950 77
2002-08-23 07:31:35 51°11.123 2°42.071 2.3 207 16.4 101950 77
2002-08-23 07:31:39 51°11.122 2°42.069 2.3 201 16.4 101950 77
2002-08-23 07:31:45 51°11.12 2°42.068 2.1 205 16.4 101950 77
2002-08-23 07:31:50 51°11.119 2°42.066 1.6 216 16.4 101950 77
2002-08-23 07:31:55 51°11.117 2°42.065 1.6 223 16.4 101950 77
2002-08-23 07:32:01 51°11.115 2°42.063 1.9 215 16.4 101950 77
2002-08-23 07:32:05 51°11.115 2°42.062 1.9 211 16.4 101950 77
2002-08-23 07:32:10 51°11.113 2°42.06 1.8 204 16.4 101950 77
2002-08-23 07:32:15 51°11.112 2°42.059 1.6 201 16.4 101950 77
2002-08-23 07:32:19 51°11.111 2°42.057 2.2 210 16.4 101950 77
2002-08-23 07:32:25 51°11.109 2°42.056 2.2 201 16.4 101940 77
2002-08-23 07:32:30 51°11.108 2°42.054 2 197 16.4 101940 77
2002-08-23 07:32:35 51°11.106 2°42.052 2 211 16.4 101950 77
2002-08-23 07:32:39 51°11.105 2°42.051 2.2 206 16.4 101950 77
2002-08-23 07:32:45 51°11.104 2°42.049 2.2 204 16.4 101950 77
2002-08-23 07:32:50 51°11.102 2°42.048 1.9 204 16.4 101950 77
2002-08-23 07:32:55 51°11.101 2°42.046 2 198 16.4 101950 77
2002-08-23 07:32:59 51°11.1 2°42.045 2.1 167 16.4 101950 77
2002-08-23 07:33:05 51°11.099 2°42.043 2.4 172 16.4 101940 77
2002-08-23 07:33:10 51°11.097 2°42.042 2.1 173 16.4 101940 77
2002-08-23 07:33:15 51°11.097 2°42.04 2.5 168 16.4 101950 77
2002-08-23 07:33:21 51°11.095 2°42.038 2 170 16.4 101950 77
2002-08-23 07:33:25 51°11.094 2°42.037 2.1 173 16.4 101950 77
2002-08-23 07:33:30 51°11.093 2°42.035 2.6 176 16.4 101950 77
2002-08-23 07:33:35 51°11.092 2°42.034 2.9 176 16.5 101950 77
2002-08-23 07:33:39 51°11.091 2°42.033 2.8 170 16.5 101950 77
2002-08-23 07:33:45 51°11.09 2°42.031 1.5 174 16.5 101950 77
2002-08-23 07:33:50 51°11.089 2°42.029 2.6 170 16.5 101950 77
2002-08-23 07:33:55 51°11.088 2°42.027 2.5 166 16.5 101950 77
2002-08-23 07:34:00 51°11.087 2°42.026 2.3 163 16.5 101950 77
2002-08-23 07:34:05 51°11.086 2°42.024 2.2 165 16.5 101950 77
2002-08-23 07:34:10 51°11.085 2°42.023 2.7 161 16.5 101950 77
2002-08-23 07:34:13 51°11.084 2°42.022 2.3 159 16.5 101950 77
2002-08-23 07:34:19 51°11.083 2°42.02 2.4 161 16.5 101950 77
2002-08-23 07:34:25 51°11.082 2°42.018 2.3 167 16.4 101950 77
2002-08-23 07:34:30 51°11.082 2°42.016 2.4 174 16.4 101950 77
2002-08-23 07:34:35 51°11.081 2°42.015 2.1 176 16.4 101950 76
2002-08-23 07:34:40 51°11.08 2°42.013 2 172 16.4 101950 76
2002-08-23 07:34:45 51°11.079 2°42.011 2 171 16.4 101950 76
2002-08-23 07:34:49 51°11.078 2°42.01 2 167 16.4 101950 76
2002-08-23 07:34:55 51°11.077 2°42.008 1.9 163 16.4 101950 76
2002-08-23 07:34:59 51°11.077 2°42.006 1.8 165 16.4 101950 76
2002-08-23 07:35:05 51°11.076 2°42.005 1.9 164 16.4 101950 77
2002-08-23 07:35:10 51°11.076 2°42.004 1.9 168 16.4 101950 77
2002-08-23 07:35:15 51°11.075 2°42.002 1.8 143 16.4 101950 77
2002-08-23 07:35:19 51°11.074 2°42.001 1.8 141 16.4 101950 77
2002-08-23 07:35:25 51°11.073 2°41.998 1.7 150 16.4 101950 77
2002-08-23 07:35:30 51°11.072 2°41.996 2 152 16.4 101950 77
2002-08-23 07:35:35 51°11.071 2°41.994 2.1 154 16.4 101950 77
2002-08-23 07:35:39 51°11.071 2°41.993 2.1 151 16.4 101950 77
2002-08-23 07:35:45 51°11.07 2°41.991 2.3 147 16.4 101950 77
2002-08-23 07:35:50 51°11.069 2°41.989 2.1 144 16.4 101950 77
2002-08-23 07:35:55 51°11.068 2°41.987 1.9 143 16.4 101950 77
2002-08-23 07:36:00 51°11.067 2°41.984 2.1 141 16.4 101950 77
2002-08-23 07:36:03 51°11.067 2°41.983 1.6 143 16.5 101950 77
2002-08-23 07:36:10 51°11.066 2°41.98 1.6 142 16.5 101950 77
2002-08-23 07:36:15 51°11.065 2°41.978 2 142 16.5 101950 77
2002-08-23 07:36:20 51°11.065 2°41.976 1.5 142 16.5 101950 77
2002-08-23 07:36:25 51°11.064 2°41.974 1.5 137 16.5 101950 77
2002-08-23 07:36:30 51°11.063 2°41.972 1.8 138 16.5 101950 77
2002-08-23 07:36:35 51°11.063 2°41.97 1.5 137 16.5 101950 77
2002-08-23 07:36:38 51°11.062 2°41.969 1.3 137 16.5 101950 77
2002-08-23 07:36:45 51°11.062 2°41.966 1.5 136 16.5 101950 77
2002-08-23 07:36:50 51°11.061 2°41.964 1.6 131 16.5 101950 77
2002-08-23 07:36:55 51°11.06 2°41.962 1.7 129 16.5 101950 77
2002-08-23 07:36:59 51°11.06 2°41.961 1.6 123 16.5 101950 77
2002-08-23 07:37:05 51°11.06 2°41.958 1.9 119 16.6 101950 77
2002-08-23 07:37:10 51°11.059 2°41.956 1.9 101 16.6 101950 77
2002-08-23 07:37:15 51°11.058 2°41.954 1.8 95 16.6 101950 77
2002-08-23 07:37:19 51°11.058 2°41.952 2 106 16.6 101950 77
2002-08-23 07:37:25 51°11.057 2°41.95 1.8 110 16.6 101950 77
2002-08-23 07:37:30 51°11.057 2°41.948 1.6 120 16.6 101950 77
2002-08-23 07:37:35 51°11.056 2°41.946 1.4 121 16.6 101950 77
2002-08-23 07:37:40 51°11.056 2°41.944 1.8 122 16.6 101950 77
2002-08-23 07:37:45 51°11.055 2°41.942 1.5 125 16.7 101950 77
2002-08-23 07:37:50 51°11.055 2°41.94 1.7 114 16.7 101950 77
2002-08-23 07:37:55 51°11.054 2°41.938 1.5 111 16.7 101950 77
2002-08-23 07:37:59 51°11.054 2°41.936 1.5 105 16.7 101950 77
2002-08-23 07:38:05 51°11.053 2°41.934 1.6 113 16.7 101960 77
2002-08-23 07:38:10 51°11.053 2°41.932 1.6 105 16.7 101960 77
2002-08-23 07:38:15 51°11.052 2°41.93 1.6 112 16.7 101950 77
2002-08-23 07:38:18 51°11.052 2°41.928 1.7 122 16.7 101950 77
2002-08-23 07:38:25 51°11.051 2°41.926 1.7 112 16.7 101950 77
2002-08-23 07:38:29 51°11.051 2°41.924 1.9 119 16.7 101950 77
2002-08-23 07:38:35 51°11.05 2°41.921 2.1 110 16.7 101950 77
2002-08-23 07:38:39 51°11.05 2°41.92 1.5 113 16.7 101950 77
2002-08-23 07:38:45 51°11.05 2°41.917 1.7 122 16.7 101950 77
2002-08-23 07:38:50 51°11.049 2°41.915 1.4 117 16.7 101950 77
2002-08-23 07:38:55 51°11.049 2°41.913 1.5 109 16.8 101950 77
2002-08-23 07:39:00 51°11.048 2°41.911 1.5 105 16.8 101950 77
2002-08-23 07:39:05 51°11.048 2°41.909 1.8 125 16.8 101950 77
2002-08-23 07:39:10 51°11.048 2°41.907 2 120 16.8 101950 77
2002-08-23 07:39:15 51°11.047 2°41.906 1.8 117 16.8 101950 77
2002-08-23 07:39:19 51°11.047 2°41.904 2.1 119 16.8 101950 77
2002-08-23 07:39:25 51°11.046 2°41.901 2.1 130 16.8 101950 77
2002-08-23 07:39:30 51°11.046 2°41.9 2.1 115 16.8 101950 77
2002-08-23 07:39:35 51°11.045 2°41.897 1.9 123 16.8 101950 77
2002-08-23 07:39:39 51°11.045 2°41.896 2 124 16.8 101950 77
2002-08-23 07:39:45 51°11.044 2°41.893 1.7 125 16.8 101950 77
2002-08-23 07:39:50 51°11.044 2°41.891 1.9 113 16.8 101950 77
2002-08-23 07:39:55 51°11.043 2°41.889 2.1 122 16.8 101950 76
2002-08-23 07:39:58 51°11.043 2°41.888 1.9 121 16.8 101950 76
2002-08-23 07:40:05 51°11.043 2°41.885 1.7 122 16.8 101950 76
2002-08-23 07:40:10 51°11.042 2°41.883 2.1 147 16.8 101950 76
2002-08-23 07:40:15 51°11.042 2°41.882 1.9 144 16.8 101950 76
2002-08-23 07:40:20 51°11.043 2°41.881 1.8 152 16.8 101950 76
2002-08-23 07:40:25 51°11.043 2°41.881 1.7 152 16.8 101950 76
2002-08-23 07:40:30 51°11.044 2°41.882 1.4 144 16.8 101950 76
2002-08-23 07:40:34 51°11.046 2°41.882 1.7 141 16.8 101950 76
2002-08-23 07:40:40 51°11.048 2°41.883 1.4 150 16.8 101950 76
2002-08-23 07:40:45 51°11.051 2°41.884 1.6 171 16.8 101950 76
2002-08-23 07:40:49 51°11.055 2°41.885 1.5 184 16.8 101950 76
2002-08-23 07:40:55 51°11.062 2°41.886 1.3 192 16.8 101950 76
2002-08-23 07:40:59 51°11.067 2°41.886 1.9 213 16.8 101950 76
2002-08-23 07:41:05 51°11.078 2°41.883 2.2 218 16.8 101950 76
2002-08-23 07:41:10 51°11.088 2°41.879 2.2 228 16.8 101950 76
2002-08-23 07:41:14 51°11.097 2°41.874 2.7 231 16.8 101950 75
2002-08-23 07:41:26 51°11.125 2°41.846 3.6 239 16.8 101950 75
2002-08-23 07:41:30 51°11.133 2°41.832 5.3 248 16.8 101950 75
2002-08-23 07:41:35 51°11.143 2°41.812 5.5 249 16.8 101950 75
2002-08-23 07:41:41 51°11.152 2°41.784 6 256 16.8 101950 75
2002-08-23 07:41:45 51°11.158 2°41.764 5.8 255 16.8 101950 75
2002-08-23 07:41:50 51°11.165 2°41.737 5.9 253 16.8 101950 75
2002-08-23 07:41:55 51°11.173 2°41.71 6.3 254 16.8 101950 75
2002-08-23 07:41:59 51°11.178 2°41.687 7 249 16.8 101950 75
2002-08-23 07:42:03 51°11.183 2°41.664 6.6 245 16.8 101940 76
2002-08-23 07:42:10 51°11.189 2°41.621 6.9 246 16.8 101940 76
2002-08-23 07:42:15 51°11.191 2°41.589 7 245 16.8 101950 76
2002-08-23 07:42:20 51°11.191 2°41.557 7.2 242 16.8 101950 76
2002-08-23 07:42:23 51°11.19 2°41.538 7.2 246 16.8 101940 76
2002-08-23 07:42:30 51°11.185 2°41.494 7.4 252 16.8 101940 76
2002-08-23 07:42:35 51°11.18 2°41.462 7.5 252 16.8 101940 76
2002-08-23 07:42:39 51°11.176 2°41.436 8.2 252 16.8 101940 76
2002-08-23 07:42:45 51°11.169 2°41.397 8 249 16.8 101940 76
2002-08-23 07:42:50 51°11.162 2°41.366 8.7 246 16.8 101940 76
2002-08-23 07:42:55 51°11.155 2°41.334 8.3 251 16.8 101950 76
2002-08-23 07:42:59 51°11.149 2°41.309 8.2 251 16.8 101950 76
2002-08-23 07:43:04 51°11.141 2°41.277 7.9 251 16.8 101940 76
2002-08-23 07:43:10 51°11.131 2°41.24 8.4 246 16.8 101940 76
2002-08-23 07:43:15 51°11.122 2°41.209 9 243 16.8 101930 76
2002-08-23 07:43:20 51°11.113 2°41.177 8.6 246 16.8 101930 76
2002-08-23 07:43:25 51°11.104 2°41.146 8.5 244 16.8 101940 75
2002-08-23 07:43:30 51°11.094 2°41.115 7.9 243 16.8 101940 75
2002-08-23 07:43:35 51°11.084 2°41.085 8.6 242 16.8 101940 75
2002-08-23 07:43:39 51°11.076 2°41.061 8.6 243 16.8 101940 75
2002-08-23 07:43:44 51°11.065 2°41.03 8.8 243 16.8 101940 75
2002-08-23 07:43:50 51°11.053 2°40.994 8.9 247 16.8 101940 75
2002-08-23 07:43:55 51°11.044 2°40.962 9.5 245 16.8 101950 75
2002-08-23 07:43:59 51°11.036 2°40.938 8.4 246 16.8 101950 75
2002-08-23 07:44:05 51°11.025 2°40.9 8.8 248 16.8 101940 75
2002-08-23 07:44:10 51°11.016 2°40.869 8.8 244 16.8 101940 75
2002-08-23 07:44:15 51°11.008 2°40.836 8.6 250 16.7 101940 75
2002-08-23 07:44:20 51°10.998 2°40.805 8.1 246 16.7 101940 75
2002-08-23 07:44:25 51°10.99 2°40.774 8.4 245 16.8 101930 75
2002-08-23 07:44:30 51°10.98 2°40.743 8.2 239 16.8 101930 75
2002-08-23 07:44:35 51°10.972 2°40.711 8.4 248 16.8 101940 75
2002-08-23 07:44:41 51°10.96 2°40.674 8.8 244 16.8 101940 75
2002-08-23 07:44:45 51°10.953 2°40.648 9.8 249 16.8 101940 75
2002-08-23 07:44:50 51°10.943 2°40.617 9.3 242 16.8 101940 75
2002-08-23 07:44:55 51°10.934 2°40.586 9.5 245 16.8 101940 75
2002-08-23 07:45:00 51°10.925 2°40.554 8.3 244 16.8 101940 75
2002-08-23 07:45:05 51°10.916 2°40.523 8.1 243 16.8 101940 75
2002-08-23 07:45:10 51°10.906 2°40.492 9.1 243 16.8 101940 75
2002-08-23 07:45:13 51°10.901 2°40.473 9.5 241 16.8 101940 75
2002-08-23 07:45:22 51°10.884 2°40.416 8.9 240 16.8 101940 75
2002-08-23 07:45:28 51°10.873 2°40.378 8.5 245 16.8 101940 75
2002-08-23 07:45:33 51°10.863 2°40.347 8.6 244 16.8 101940 75
2002-08-23 07:45:42 51°10.847 2°40.29 8.1 241 16.8 101940 75
2002-08-23 07:45:47 51°10.838 2°40.258 8.9 243 16.8 101940 75
2002-08-23 07:45:52 51°10.829 2°40.226 8.8 245 16.8 101940 74
2002-08-23 07:46:02 51°10.81 2°40.163 9.5 243 16.7 101940 74
2002-08-23 07:46:07 51°10.802 2°40.131 9.4 246 16.7 101940 74
2002-08-23 07:46:12 51°10.792 2°40.1 9.3 246 16.8 101940 74
2002-08-23 07:46:22 51°10.774 2°40.036 8.6 244 16.8 101940 75
2002-08-23 07:46:27 51°10.764 2°40.005 8.4 240 16.8 101940 75
2002-08-23 07:46:32 51°10.755 2°39.973 8.7 246 16.8 101940 75
2002-08-23 07:46:42 51°10.737 2°39.91 8.9 241 16.8 101940 75
2002-08-23 07:46:47 51°10.728 2°39.877 9 244 16.8 101940 75
2002-08-23 07:46:52 51°10.719 2°39.845 9.1 243 16.8 101940 75
2002-08-23 07:47:02 51°10.7 2°39.782 9.3 244 16.8 101940 75
2002-08-23 07:47:08 51°10.689 2°39.743 8.7 243 16.8 101940 75
2002-08-23 07:47:13 51°10.68 2°39.712 9.4 247 16.8 101930 75
2002-08-23 07:47:22 51°10.664 2°39.654 9.2 244 16.9 101940 75
2002-08-23 07:47:27 51°10.654 2°39.623 8.9 242 16.9 101940 75
2002-08-23 07:47:32 51°10.646 2°39.591 8.9 244 16.9 101940 75
2002-08-23 07:47:42 51°10.627 2°39.527 9 244 16.9 101940 75
2002-08-23 07:47:47 51°10.618 2°39.495 10 243 16.9 101940 75
2002-08-23 07:47:52 51°10.609 2°39.463 8.8 243 16.8 101940 75
2002-08-23 07:48:02 51°10.59 2°39.399 8.6 244 16.8 101940 75
2002-08-23 07:48:07 51°10.581 2°39.367 9.5 243 16.8 101940 75
2002-08-23 07:48:12 51°10.572 2°39.335 9.9 245 16.8 101940 75
2002-08-23 07:48:22 51°10.555 2°39.27 9.2 246 16.8 101940 75
2002-08-23 07:48:27 51°10.547 2°39.237 9.3 246 16.8 101940 75
2002-08-23 07:48:32 51°10.54 2°39.204 9.4 248 16.8 101940 75
2002-08-23 07:48:42 51°10.527 2°39.136 9 247 16.8 101950 75
2002-08-23 07:48:47 51°10.521 2°39.102 8.7 249 16.8 101950 75
2002-08-23 07:48:52 51°10.516 2°39.068 8.4 244 16.8 101940 75
2002-08-23 07:49:02 51°10.506 2°39 9.6 246 16.8 101940 75
2002-08-23 07:49:07 51°10.5 2°38.966 9.3 242 16.8 101940 75
2002-08-23 07:49:12 51°10.496 2°38.931 9.3 245 16.8 101940 75
2002-08-23 07:49:22 51°10.486 2°38.862 9.5 242 16.8 101940 75
2002-08-23 07:49:28 51°10.48 2°38.822 8.8 241 16.8 101940 75
2002-08-23 07:49:33 51°10.475 2°38.787 9 242 16.8 101940 75
2002-08-23 07:49:42 51°10.465 2°38.725 7.8 247 16.8 101950 75
2002-08-23 07:49:47 51°10.46 2°38.691 8.3 244 16.8 101950 75
2002-08-23 07:49:52 51°10.455 2°38.657 8.3 242 16.8 101940 75
2002-08-23 07:50:02 51°10.446 2°38.588 8.8 244 16.8 101940 75
2002-08-23 07:50:07 51°10.44 2°38.553 9.3 245 16.8 101940 75
2002-08-23 07:50:12 51°10.435 2°38.519 9.4 243 16.8 101950 75
2002-08-23 07:50:22 51°10.425 2°38.451 8.4 239 16.8 101940 75
2002-08-23 07:50:27 51°10.421 2°38.416 9 238 16.8 101940 75
2002-08-23 07:50:32 51°10.415 2°38.382 9.5 245 16.8 101940 75
2002-08-23 07:50:42 51°10.405 2°38.313 9.3 242 16.8 101950 75
2002-08-23 07:50:47 51°10.399 2°38.279 9.2 240 16.8 101950 75
2002-08-23 07:50:52 51°10.395 2°38.244 10.1 244 16.9 101940 75
2002-08-23 07:50:57 51°10.389 2°38.21 9.5 242 16.9 101940 75
2002-08-23 07:51:02 51°10.384 2°38.175 9.9 239 16.9 101940 76
2002-08-23 07:51:07 51°10.379 2°38.141 9.5 241 16.9 101940 76
2002-08-23 07:51:10 51°10.375 2°38.121 9.5 241 16.9 101940 76
2002-08-23 07:51:17 51°10.368 2°38.072 9.2 240 16.9 101940 76
2002-08-23 07:51:22 51°10.363 2°38.038 9.6 238 16.9 101950 76
2002-08-23 07:51:27 51°10.358 2°38.004 10.1 237 16.9 101950 76
2002-08-23 07:51:31 51°10.353 2°37.976 9.2 246 16.9 101940 76
2002-08-23 07:51:35 51°10.349 2°37.949 9.3 248 16.9 101940 76
2002-08-23 07:51:42 51°10.341 2°37.901 8.7 242 16.9 101950 76
2002-08-23 07:51:47 51°10.336 2°37.867 8.9 241 16.9 101950 76
2002-08-23 07:51:51 51°10.332 2°37.839 9.3 242 16.8 101940 76
2002-08-23 07:51:55 51°10.328 2°37.812 8.9 246 16.8 101940 76
2002-08-23 07:52:02 51°10.32 2°37.764 8.8 243 16.8 101950 76
2002-08-23 07:52:07 51°10.315 2°37.73 9.4 244 16.8 101950 76
2002-08-23 07:52:11 51°10.31 2°37.703 10.4 245 16.8 101940 76
2002-08-23 07:52:15 51°10.306 2°37.675 10.2 241 16.8 101940 76
2002-08-23 07:52:22 51°10.298 2°37.627 9.7 244 16.8 101940 76
2002-08-23 07:52:27 51°10.293 2°37.593 9.8 243 16.8 101940 76
2002-08-23 07:52:31 51°10.289 2°37.565 9 244 16.8 101940 76
2002-08-23 07:52:35 51°10.284 2°37.538 9.2 243 16.8 101940 76
2002-08-23 07:52:42 51°10.277 2°37.49 9.2 242 16.8 101940 76
2002-08-23 07:52:45 51°10.273 2°37.47 9.6 246 16.8 101940 76
2002-08-23 07:52:51 51°10.267 2°37.428 9.9 243 16.8 101940 76
2002-08-23 07:52:57 51°10.261 2°37.387 9.7 248 16.8 101940 76
2002-08-23 07:53:02 51°10.255 2°37.353 8.5 246 16.7 101940 75
2002-08-23 07:53:07 51°10.25 2°37.319 9.8 248 16.7 101940 75
2002-08-23 07:53:12 51°10.244 2°37.285 9.1 244 16.7 101950 75
2002-08-23 07:53:15 51°10.241 2°37.264 9.6 242 16.7 101950 75
2002-08-23 07:53:22 51°10.233 2°37.217 9.3 245 16.7 101940 75
2002-08-23 07:53:26 51°10.229 2°37.189 9.5 245 16.7 101940 75
2002-08-23 07:53:31 51°10.223 2°37.155 9.2 247 16.7 101940 76
2002-08-23 07:53:37 51°10.216 2°37.115 9.2 245 16.7 101940 76
2002-08-23 07:53:42 51°10.211 2°37.081 10 243 16.7 101940 75
2002-08-23 07:53:47 51°10.206 2°37.047 9 247 16.7 101940 75
2002-08-23 07:53:51 51°10.2 2°37.02 9.5 246 16.7 101940 75
2002-08-23 07:53:57 51°10.194 2°36.979 8.8 245 16.7 101940 75
2002-08-23 07:54:02 51°10.189 2°36.945 9.7 244 16.7 101950 75
2002-08-23 07:54:06 51°10.185 2°36.917 9.8 247 16.7 101950 75
2002-08-23 07:54:11 51°10.179 2°36.884 9.2 246 16.7 101940 75
2002-08-23 07:54:17 51°10.173 2°36.843 9.2 244 16.7 101940 75
2002-08-23 07:54:22 51°10.167 2°36.809 9.5 241 16.8 101940 75
2002-08-23 07:54:27 51°10.162 2°36.775 10.1 242 16.8 101940 75
2002-08-23 07:54:31 51°10.157 2°36.748 8.8 242 16.8 101940 75
2002-08-23 07:54:37 51°10.151 2°36.707 9.1 247 16.8 101940 75
2002-08-23 07:54:42 51°10.146 2°36.673 9.5 246 16.7 101940 75
2002-08-23 07:54:47 51°10.14 2°36.639 9.6 245 16.7 101940 75
2002-08-23 07:54:51 51°10.136 2°36.613 9.1 237 16.8 101940 76
2002-08-23 07:54:58 51°10.128 2°36.565 9 241 16.8 101940 76
2002-08-23 07:55:02 51°10.124 2°36.538 8.8 239 16.8 101940 76
2002-08-23 07:55:07 51°10.119 2°36.504 8.8 243 16.8 101940 76
2002-08-23 07:55:11 51°10.114 2°36.478 9.7 239 16.8 101940 76
2002-08-23 07:55:17 51°10.107 2°36.438 9.6 241 16.8 101940 76
2002-08-23 07:55:22 51°10.102 2°36.405 9.7 239 16.8 101940 75
2002-08-23 07:55:27 51°10.096 2°36.372 9.5 241 16.8 101940 75